Location: Proctor
(47.8934°N, 114.3048°W)
Time: 07:38:46
(UTC+00:00)

Vanguard 2 Rocket - Pass Details

Date: 16 June 2024
Orbit: 555 x 3303 km, 32.9° (Epoch: 13 July)

Event Time Altitude Azimuth Distance (km) Brightness Sun altitude
Exits shadow 10:42:58 - 210° (SSW) 6,557 10.6 -7.6°
Reaches altitude 10° 10:44:48 10° 207° (SSW) 6,250 10.5 -7.4°
Maximum altitude 11:00:32 31° 155° (SSE) 4,305 10.2 -5.5°
Drops below altitude 10° 11:12:56 10° 101° (ESE) 4,946 11.2 -4.0°
Sets 11:16:46 0° 92° (E) 5,587 11.7 -3.5°
